Regional Weather Roundup
Issued by NWS Cleveland, OH

Home | Current Version | Previous Version | Graphics & Text | Print | Product List | Glossary On
Versions: 1 2 3 4 5 6 7 8 9 10 11 12 13 14 15 16 17 18 19 20 21 22 23 24 25 26 27 28 29 30 31 32 33 34 35 36 37 38 39 40 41 42 43 44 45 46 47 48 49 50
000
ASUS41 KCLE 300310
RWRCLE
OHIO REGIONAL WEATHER ROUNDUP
NATIONAL WEATHER SERVICE CLEVELAND, OH
1100 PM EDT MON MAY 29 2017

NOTE: "FAIR" INDICATES FEW OR NO CLOUDS BELOW 12,000 FEET WITH NO
SIGNIFICANT WEATHER AND/OR OBSTRUCTIONS TO VISIBILITY.

OHZ001>008-015>018-024>027-034-035-043-044-300400-
   NORTHWEST OHIO

CITY           SKY/WX    TMP DP  RH WIND       PRES   REMARKS
DEFIANCE       CLEAR     62  55  77 W3        29.89R
FINDLAY        PTCLDY    65  51  60 S10       29.89R
TOLEDO EXPRESS CLEAR     58  57  97 CALM      29.88R
TOLEDO EXEC    CLEAR     65  55  70 CALM      29.88R
LIMA           PTCLDY    62  55  77 S9        29.90R
$$

OHZ009>014-019>023-028>033-038-089-300400-
   NORTHEAST OHIO

CITY           SKY/WX    TMP DP  RH WIND       PRES   REMARKS
CLE-HOPKINS    MOCLDY    72  55  55 S10       29.91R
CLE-LAKEFRONT  CLOUDY    71  55  56 S10       29.88S
CUY CO. ARPT   MOCLDY    68  55  64 S8        29.90S
LORAIN-ELYRIA  MOCLDY    68  53  58 S6        29.90R
ASHTABULA      CLEAR     63  58  83 S6        29.92F
AKRON-CANTON   PTCLDY    64  54  69 S6        29.94R
WOOSTER        CLEAR     65  56  72 S7        29.93R
MANSFIELD      TSTM      63  54  72 W20G32    29.98R
YOUNGSTOWN     MOCLDY    63  54  72 S7        29.94S
$$

OHZ042-051>053-060>062-070>072-077>081-300400-
  SOUTHWEST OHIO

CITY           SKY/WX    TMP DP  RH WIND       PRES   REMARKS
CINC-COVINGTON PTCLDY    67  55  65 S9        29.94S
CINC-LUNKEN    CLEAR     66  58  75 CALM      29.94R
HAMILTON       PTCLDY    69  57  65 SW3       29.93R
DAYTON         MOCLDY    65  59  81 S5        29.94R
WRIGHT-PAT AFB MOCLDY    69  54  58 NE5       29.92R
DAYTON GENERAL CLEAR     65  55  70 S7        29.92S
WILMINGTON     CLEAR     67  57  70 S8        29.95R
$$

OHZ036-037-039>041-045>050-054>059-063>069-073>076-082>088-300400-
  CENTRAL AND SOUTHEAST OHIO

CITY           SKY/WX    TMP DP  RH WIND       PRES   REMARKS
COLUMBUS       MOCLDY    72  54  53 S3        29.93R
OSU AIRPORT    CLOUDY    71  55  56 S5        29.93R
BOLTON FIELD   PTCLDY    66  56  71 S6        29.94S
RICKENBACK AFB PTCLDY    69  58  68 S6        29.93R
NEWARK         MOCLDY    66  56  70 CALM      29.94R
MARION         RAIN      64  51  62 SW17G28   29.98R
LANCASTER      PTCLDY    70  57  63 S5        29.95R
ZANESVILLE     LGT RAIN  65  55  70 VRB3      29.96R
NEW PHILLY     NOT AVBL
$$



USA.gov is the U.S. government's official web portal to all federal, state and local government web resources and services.